DW8906 Weather Reports


Display with metric or nautical units.
time (UTC)temp
F
wind
direction
speed
MPH
gust
MPH
rain 1hr
in
rain 24hr
in
rain mn
in
humidity
%
barometer
mb
20190616064705 50 293 3.0 4.0 0.00 0.00 0.00 76 1020.0
20190616063405 50 293 4.0 4.0 0.00 0.00 0.00 76 1020.0
20190616062305 50 338 2.0 3.0 0.00 0.00 0.00 76 1020.3
20190616061206 50 338 2.0 3.0 0.00 0.00 0.00 78 1020.7
20190616060008 49 293 3.0 4.0 0.00 0.00 0.00 81 1020.7
20190616055804 49 315 3.0 4.0 0.00 0.00 0.00 81 1020.7
20190616054705 49 315 1.0 2.0 0.00 0.00 0.00 83 1020.7
20190616053405 49 293 2.0 3.0 0.00 0.00 0.00 86 1020.7
20190616052006 49 270 3.0 3.0 0.00 0.00 0.00 86 1020.7
20190616050605 49 293 4.0 4.0 0.00 0.00 0.00 86 1020.7
20190616045505 50 293 3.0 4.0 0.00 0.00 0.00 86 1020.7
20190616044405 50 315 4.0 5.0 0.00 0.00 0.00 86 1020.7
20190616043305 50 315 3.0 5.0 0.00 0.00 0.00 88 1020.3
20190616042206 49 315 2.0 4.0 0.00 0.00 0.00 91 1020.3
20190616041204 50 293 1.0 4.0 0.00 0.00 0.00 91 1020.3
20190616040105 50 270 2.0 3.0 0.00 0.00 0.00 91 1020.3
20190616035006 51 293 0.0 3.0 0.00 0.00 0.00 91 1020.7
20190616033905 51 270 3.0 3.0 0.00 0.00 0.00 88 1020.7
20190616032805 51 180 0.0 0.0 0.00 0.00 0.00 86 1020.7
20190616031305 51 315 0.0 0.0 0.00 0.00 0.00 88 1020.7
20190616030206 51 293 0.0 0.0 0.00 0.00 0.00 88 1020.3
20190616025007 53 338 0.0 0.0 0.00 0.00 0.00 83 1020.3
20190616023906 54 270 0.0 0.0 0.00 0.00 0.00 80 1020.3
20190616022805 55 45 0.0 0.0 0.00 0.00 0.00 75 1020.0
20190616021705 57 338 0.0 0.0 0.00 0.00 0.00 73 1020.0
20190616015405 59 315 2.0 5.0 0.00 0.00 0.00 70 1019.6
20190616014305 59 315 5.0 5.0 0.00 0.00 0.00 70 1020.0
20190616013207 60 338 4.0 7.0 0.00 0.00 0.00 68 1020.0
20190616012205 60 338 5.0 7.0 0.00 0.00 0.00 69 1019.6
20190616011106 60 315 5.0 8.0 0.00 0.00 0.00 66 1020.0
20190616010005 61 338 6.0 7.0 0.00 0.00 0.00 65 1019.6
20190616004906 60 315 5.0 6.0 0.00 0.00 0.00 71 1019.6
20190616003805 58 315 4.0 5.0 0.00 0.00 0.00 76 1019.6
20190616002705 57 270 2.0 6.0 0.00 0.00 0.00 78 1019.6
20190616001605 57 293 3.0 4.0 0.00 0.00 0.00 75 1019.6
20190616000505 57 270 3.0 3.0 0.00 0.00 0.00 78 1019.6
20190615235405 56 225 2.0 6.0 0.00 0.00 0.00 80 1020.0
20190615234108 56 248 4.0 5.0 0.00 0.00 0.00 81 1020.0
20190615233105 55 315 4.0 6.0 0.00 0.00 0.00 85 1020.0
20190615232105 54 270 5.0 7.0 0.00 0.00 0.00 83 1020.0
20190615231005 54 225 5.0 7.0 0.00 0.00 0.00 83 1020.3
20190615225905 54 248 6.0 11.0 0.00 0.00 0.00 81 1020.3
20190615224705 53 293 10.0 13.0 0.00 0.00 0.00 83 1020.3
20190615223605 52 270 10.0 13.0 0.00 0.00 0.00 85 1020.3
20190615222506 52 270 11.0 12.0 0.00 0.00 0.00 88 1020.3
20190615221406 51 270 7.0 10.0 0.00 0.00 0.00 91 1020.7
20190615220305 51 248 9.0 10.0 0.00 0.00 0.00 88 1020.7
20190615215205 51 270 7.0 9.0 0.00 0.00 0.00 88 1021.0
20190615214105 51 270 7.0 10.0 0.00 0.00 0.00 90 1020.7
20190615213005 50 270 5.0 7.0 0.00 0.00 0.00 91 1020.7
20190615211905 49 270 4.0 5.0 0.00 0.00 0.00 95 1020.3
20190615210805 48 158 2.0 3.0 0.00 0.00 0.00 98 1020.7
20190615205705 49 338 4.0 12.0 0.00 0.00 0.00 96 1021.0
20190615204605 50 338 6.0 10.0 0.00 0.00 0.00 90 1021.3
20190615203505 50 315 9.0 14.0 0.00 0.00 0.00 86 1021.0
20190615202405 51 315 7.0 12.0 0.00 0.00 0.00 83 1020.3
20190615201305 48 293 8.0 11.0 0.00 0.00 0.00 95 1020.7
20190615200205 48 293 2.0 7.0 0.00 0.00 0.00 93 1020.3
20190615195005 48 0 8.0 10.0 0.00 0.00 0.00 90 1020.3
20190615193905 48 0 8.0 13.0 0.00 0.00 0.00 88 1020.3
20190615192805 50 338 6.0 12.0 0.00 0.00 0.00 83 1020.7
20190615191705 50 23 7.0 23.0 0.00 0.00 0.00 79 1020.0
20190615190605 53 68 8.0 14.0 0.00 0.00 0.00 71 1020.3
20190615185505 55 158 9.0 19.0 0.00 0.00 0.00 69 1020.0
20190615184406 60 158 6.0 11.0 0.00 0.00 0.00 63 1020.0
20190615183305 64 68 2.0 7.0 0.00 0.00 0.00 50 1019.6
20190615182304 65 113 3.0 7.0 0.00 0.00 0.00 48 1019.6
20190615181205 66 68 4.0 6.0 0.00 0.00 0.00 46 1019.6
20190615180110 67 45 8.0 11.0 0.00 0.00 0.00 45 1019.6
20190615175105 69 23 5.0 10.0 0.00 0.00 0.00 44 1020.0
20190615174005 70 90 4.0 7.0 0.00 0.00 0.00 43 1019.6
20190615172905 69 90 10.0 11.0 0.00 0.00 0.00 44 1019.6
20190615171805 69 0 4.0 12.0 0.00 0.00 0.00 40 1019.6
20190615170704 71 45 6.0 8.0 0.00 0.00 0.00 40 1019.6
20190615165605 71 338 6.0 8.0 0.00 0.00 0.00 40 1019.6
20190615164604 70 90 5.0 13.0 0.00 0.00 0.00 40 1019.6
20190615163505 69 23 6.0 10.0 0.00 0.00 0.00 41 1019.6
20190615162405 71 338 7.0 11.0 0.00 0.00 0.00 40 1019.6
20190615161305 71 23 7.0 10.0 0.00 0.00 0.00 39 1020.0
20190615160205 69 90 3.0 6.0 0.00 0.00 0.00 41 1019.6
20190615155105 69 45 5.0 9.0 0.00 0.00 0.00 41 1019.6
20190615154005 69 338 5.0 10.0 0.00 0.00 0.00 41 1019.6
20190615152905 68 23 9.0 11.0 0.00 0.00 0.00 40 1019.6
20190615151806 68 23 7.0 10.0 0.00 0.00 0.00 41 1019.6
20190615150705 67 23 6.0 13.0 0.00 0.00 0.00 43 1019.6
20190615145704 66 338 10.0 11.0 0.00 0.00 0.00 43 1019.3
20190615144605 66 45 8.0 13.0 0.00 0.00 0.00 43 1019.3
20190615143505 66 23 4.0 10.0 0.00 0.00 0.00 44 1019.6
20190615142405 65 338 6.0 9.0 0.00 0.00 0.00 44 1019.3
20190615141305 64 338 10.0 13.0 0.00 0.00 0.00 44 1019.3
20190615140205 64 0 6.0 15.0 0.00 0.00 0.00 45 1019.3
20190615135105 64 315 7.0 10.0 0.00 0.00 0.00 45 1019.0
20190615134006 64 338 3.0 6.0 0.00 0.00 0.00 48 1019.0
20190615132905 63 315 3.0 4.0 0.00 0.00 0.00 51 1019.0
20190615131811 61 113 0.0 2.0 0.00 0.00 0.00 59 1019.0
20190615130805 61 45 3.0 3.0 0.00 0.00 0.00 61 1019.0
20190615125805 59 338 0.0 0.0 0.00 0.00 0.00 61 1019.0
20190615124706 56 293 1.0 3.0 0.00 0.00 0.00 65 1019.0
20190615123605 55 293 0.0 0.0 0.00 0.00 0.00 66 1019.0
20190615122507 55 338 0.0 0.0 0.00 0.00 0.00 68 1019.0
20190615121405 55 90 0.0 0.0 0.00 0.00 0.00 65 1019.0
20190615120305 54 68 0.0 0.0 0.00 0.00 0.00 65 1019.0
20190615115205 51 293 0.0 0.0 0.00 0.00 0.00 74 1019.0
20190615114105 49 293 0.0 0.0 0.00 0.00 0.00 76 1019.0
20190615112904 48 270 0.0 0.0 0.00 0.00 0.00 78 1018.6
20190615111805 48 293 0.0 0.0 0.00 0.00 0.00 78 1018.6
20190615110706 48 293 0.0 0.0 0.00 0.00 0.00 78 1018.6
20190615105505 48 338 0.0 0.0 0.00 0.00 0.00 76 1018.3
20190615104305 49 315 0.0 0.0 0.00 0.00 0.00 74 1018.3
20190615103206 50 315 0.0 0.0 0.00 0.00 0.00 70 1017.9
20190615102105 51 203 0.0 4.0 0.00 0.00 0.00 68 1018.3
20190615101105 53 248 4.0 5.0 0.00 0.00 0.00 65 1018.3
20190615100005 53 270 4.0 5.0 0.00 0.00 0.00 65 1017.9
20190615094906 52 270 3.0 5.0 0.00 0.00 0.00 66 1017.9
20190615093605 51 203 3.0 6.0 0.00 0.00 0.00 69 1017.6
20190615092505 49 293 1.0 3.0 0.00 0.00 0.00 71 1017.6
20190615091511 50 293 1.0 2.0 0.00 0.00 0.00 70 1017.9
20190615090405 53 23 0.0 0.0 0.00 0.00 0.00 63 1017.6
20190615085404 54 270 3.0 4.0 0.00 0.00 0.00 61 1017.9
20190615084305 54 270 3.0 4.0 0.00 0.00 0.00 61 1017.9
20190615083205 54 293 4.0 5.0 0.00 0.00 0.00 61 1017.6
20190615082105 54 270 4.0 4.0 0.00 0.00 0.00 63 1017.6
20190615081005 52 270 4.0 4.0 0.00 0.00 0.00 63 1017.9
20190615075906 52 270 2.0 4.0 0.00 0.00 0.00 65 1017.9
20190615074805 52 270 3.0 5.0 0.00 0.00 0.00 66 1017.9
20190615073705 52 293 3.0 5.0 0.00 0.00 0.00 69 1017.9
20190615072704 52 270 5.0 6.0 0.00 0.00 0.00 70 1018.3
20190615071605 52 293 5.0 6.0 0.00 0.00 0.00 69 1017.9
20190615070505 53 293 4.0 5.0 0.00 0.00 0.00 68 1017.9